{"data":{"norad_id":55608,"epoch":"2026-09-20T21:49:26.279616Z","epoch_age_seconds":64924,"freshness":"FRESH","line1":"1 55608U 23020AR  26263.90933194  .00000926  00000+0  43166-4 0  9998","line2":"2 55608  43.0051 331.8997 0001698 299.3766  60.6916 15.27587361198893","mean_motion":15.27587361,"eccentricity":0.0001698,"inclination_deg":43.0051,"raan_deg":331.8997,"arg_perigee_deg":299.3766,"mean_anomaly_deg":60.6916,"bstar":4.3166e-5,"rev_number":19889,"period_min":94.266294469557,"perigee_km":481.86202898958,"apogee_km":484.19208030254,"semimajor_km":6861.1640546461,"source":"CELESTRAK","updated_at":"2026-09-21T09:00:33.273612Z"}}